{"data":{"norad_id":62597,"intl_designator":"2025-008L","name":"STARLINK-11521 [DTC]","alt_names":[],"object_type":"PAYLOAD","status":"ACTIVE","operator":null,"country":"US","launch_date":"2025-01-13","launch_site_code":"AFETR","launch_vehicle":null,"mission":null,"orbit_class":"UNKNOWN","rcs_meters":null,"size_class":null,"mass_kg":null,"dimensions":null,"purposes":["comms"],"wikipedia_slug":null,"has_3d_model":false,"image_url":null,"decayed_at":null,"tle_current":{"epoch":"2026-09-21T15:18:03.893184Z","epoch_age_seconds":73025,"freshness":"FRESH","line1":"1 62597U 25008L   26264.63754506  .00150576  00000+0  11563-2 0  9991","line2":"2 62597  43.0022  24.8834 0002369 284.3508  75.7096 15.70829808 98101","mean_motion":15.70829808,"eccentricity":0.0002369,"inclination_deg":43.0022,"raan_deg":24.8834,"arg_perigee_deg":284.3508,"mean_anomaly_deg":75.7096,"bstar":0.0011563,"rev_number":9810,"period_min":91.671293265909,"perigee_km":354.92875113306,"apogee_km":358.11963360601,"semimajor_km":6734.6611923695,"source":"CELESTRAK","updated_at":"2026-09-22T09:00:49.632129Z"}}}